Terminal Aerodrome Forecast
Issued by NWS Charleston, WV

Home | Current Version | Previous Version | Text Only | Print | Product List | Glossary On
Versions: 1 2 3 4 5 6 7 8 9 10 11 12 13 14 15 16 17 18
407
FTUS41 KRLX 240539
TAFHTS
TAF
KHTS 240539Z 2406/2506 07007KT P6SM OVC080
      TEMPO 2413/2415 4SM -SHRA
     FM241500 08008KT P6SM -SHRA OVC050
     FM242000 07007KT P6SM -SHRA OVC030
     FM250500 02003KT P6SM OVC015=

USA.gov is the U.S. government's official web portal to all federal, state and local government web resources and services.